Weather History for Bradford, PA

Change the Weather History Date:

Thursday, February 14, 2013

  Actual Average Record
Temperature  
Mean Temperature 29 °F 23 °F  
Max Temperature 35 °F 32 °F 49 °F (1967)
Min Temperature 23 °F 15 °F -21 °F (1979)
Degree Days  
Heating Degree Days 36 36  
Month to date heating degree days 517  
Since 1 July heating degree days 4928  
Cooling Degree Days 0 0  
Month to date cooling degree days 0  
Year to date cooling degree days 0  
Moisture  
Dew Point 25 °F    
Average Humidity 81    
Maximum Humidity 85    
Minimum Humidity 72    
Precipitation  
Precipitation 0.05 in 0.08 in 1.13 in (1960)
Month to date precipitation 1.18  
Year to date precipitation 4.47  
Sea Level Pressure  
Sea Level Pressure 29.83 in    
Wind  
Wind Speed 7 mph (SSW)    
Max Wind Speed 12 mph    
Max Gust Speed 20 mph    
Visibility 4 miles    
Events Snow    
T = Trace of Precipitation, MM = Missing Value Source: NWS Daily Summary

Daily Weather History Graph

Daily Weather History Graph

Search for Another Location

Airport:

Trip Planner

Search our weather history database for the weather conditions in past years. The results will help you decide how hot, cold, wet, or windy it might be!

Date:

Astronomy

Feb. 14, 2013 Rise Set
Actual Time 7:11 AM EST 5:46 PM EST
Civil Twilight 6:42 AM EST 6:15 PM EST
Nautical Twilight 6:09 AM EST 6:48 PM EST
Astronomical Twilight 5:37 AM EST 7:20 PM EST
Moon 9:07 AM EST (2/14) 10:53 PM EST (2/14)
Length of Visible Light 11h 32m
Length of Day
10h 35m
Waxing Crescent, 21% of the Moon is Illuminated
Feb 14
Waxing Crescent
Feb 17
First Quarter
Feb 25
Full
Mar 4
Last Quarter
Mar 11
New

Hourly Weather History & Observations

Time (EST) Temp. Windchill Dew Point Humidity Pressure Visibility Wind Dir Wind Speed Gust Speed Precip Events Conditions
12:53 AM 24.1 °F 17.0 °F 19.0 °F 81% 29.79 in 7.0 mi WNW 5.8 mph - N/A   Clear
1:14 AM 24.1 °F 17.0 °F 19.0 °F 81% 29.75 in 6.0 mi West 5.8 mph - N/A   Haze
1:24 AM 24.1 °F 15.2 °F 19.9 °F 84% 29.75 in 6.0 mi WNW 8.1 mph - N/A   Mostly Cloudy
1:53 AM 24.1 °F 18.2 °F 19.9 °F 84% 29.81 in 7.0 mi West 4.6 mph - N/A   Overcast
2:53 AM 24.1 °F 17.0 °F 19.0 °F 81% 29.83 in 8.0 mi SW 5.8 mph - N/A   Overcast
3:53 AM 23.0 °F - 18.0 °F 81% 29.83 in 8.0 mi Calm Calm - N/A   Overcast
4:53 AM 24.1 °F 18.2 °F 19.0 °F 81% 29.85 in 8.0 mi WSW 4.6 mph - N/A   Overcast
5:53 AM 23.0 °F 17.0 °F 18.0 °F 81% 29.87 in 8.0 mi SW 4.6 mph - N/A   Overcast
6:53 AM 23.0 °F 14.7 °F 18.0 °F 81% 29.90 in 8.0 mi SW 6.9 mph - N/A   Overcast
7:53 AM 23.0 °F 15.8 °F 18.0 °F 81% 29.92 in 6.0 mi SSW 5.8 mph - N/A   Haze
8:53 AM 25.0 °F 19.3 °F 19.0 °F 78% 29.93 in 7.0 mi SSW 4.6 mph - N/A   Overcast
9:53 AM 27.0 °F 18.7 °F 21.0 °F 78% 29.91 in 5.0 mi SW 8.1 mph - N/A   Haze
10:28 AM 28.0 °F 20.0 °F 21.9 °F 78% 29.85 in 5.0 mi SW 8.1 mph - N/A   Haze
10:53 AM 28.9 °F 19.8 °F 21.9 °F 75% 29.90 in 5.0 mi SW 10.4 mph - N/A   Haze
11:03 AM 30.0 °F 23.2 °F 23.0 °F 75% 29.84 in 5.0 mi South 6.9 mph - N/A   Haze
11:53 AM 30.9 °F 22.8 °F 23.0 °F 72% 29.90 in 5.0 mi South 9.2 mph - N/A   Haze
12:15 PM 32.0 °F 24.8 °F 25.0 °F 75% 29.83 in 5.0 mi SSW 8.1 mph - N/A   Haze
12:30 PM 32.0 °F 23.0 °F 25.0 °F 75% 29.82 in 5.0 mi SSW 11.5 mph - N/A   Haze
12:37 PM 32.0 °F 23.0 °F 25.0 °F 75% 29.82 in 5.0 mi SSW 11.5 mph - N/A   Haze
12:53 PM 32.0 °F 24.2 °F 25.0 °F 75% 29.89 in 5.0 mi South 9.2 mph - N/A   Haze
1:53 PM 32.0 °F 24.2 °F 26.1 °F 79% 29.88 in 3.0 mi South 9.2 mph - 0.00 in Snow Light Snow
1:57 PM 32.0 °F 23.6 °F 26.1 °F 79% 29.81 in 1.8 mi SSW 10.4 mph - 0.00 in Snow Light Snow
2:21 PM 32.0 °F 26.4 °F 27.0 °F 82% 29.81 in 0.8 mi SSW 5.8 mph - 0.00 in Snow Light Snow
2:32 PM 33.1 °F 27.7 °F 27.0 °F 78% 29.81 in 1.8 mi Variable 5.8 mph - 0.00 in Snow Light Snow
2:53 PM 33.1 °F 26.9 °F 27.0 °F 78% 29.86 in 1.2 mi South 6.9 mph 16.1 mph 0.00 in Snow Light Snow
3:53 PM 33.1 °F 25.5 °F 28.0 °F 82% 29.86 in 1.5 mi SSW 9.2 mph - 0.00 in Snow Light Snow
4:19 PM 33.1 °F 25.5 °F 28.0 °F 82% 29.80 in 0.8 mi South 9.2 mph - 0.00 in Snow Light Snow
4:29 PM 33.1 °F 26.9 °F 28.0 °F 82% 29.79 in 1.0 mi Variable 6.9 mph - 0.00 in Snow Light Snow
4:36 PM 33.1 °F 26.1 °F 28.0 °F 82% 29.79 in 0.8 mi South 8.1 mph - 0.00 in Snow Light Snow
4:53 PM 32.0 °F 25.6 °F 28.0 °F 85% 29.85 in 0.8 mi Variable 6.9 mph - 0.01 in Snow Light Snow
5:04 PM 33.1 °F 26.9 °F 28.0 °F 82% 29.79 in 1.0 mi South 6.9 mph - 0.00 in Snow Light Snow
6:21 PM 33.1 °F 25.5 °F 28.9 °F 85% 29.80 in 2.0 mi South 9.2 mph - 0.00 in Snow Light Snow
6:29 PM 33.1 °F 25.5 °F 28.9 °F 85% 29.80 in 1.8 mi SSW 9.2 mph - 0.00 in Snow Light Snow
6:36 PM 34.0 °F 27.2 °F 28.9 °F 82% 29.81 in 3.0 mi SSW 8.1 mph - 0.00 in Snow Light Snow
6:43 PM 33.1 °F 26.1 °F 28.9 °F 85% 29.81 in 1.8 mi SSW 8.1 mph - 0.00 in Snow Light Snow
6:53 PM 33.1 °F 27.7 °F 28.9 °F 85% 29.87 in 1.2 mi SSW 5.8 mph - 0.00 in Snow Light Snow
7:53 PM 33.1 °F 24.9 °F 28.9 °F 85% 29.87 in 1.2 mi South 10.4 mph - 0.01 in Snow Light Snow
8:43 PM 34.0 °F 27.2 °F 28.9 °F 82% 29.80 in 3.0 mi South 8.1 mph 19.6 mph 0.01 in Snow Light Snow
8:53 PM 34.0 °F 26.0 °F 28.9 °F 82% 29.86 in 2.5 mi South 10.4 mph - 0.01 in Snow Light Snow
8:58 PM 33.1 °F 24.9 °F 28.9 °F 85% 29.81 in 0.8 mi SSW 10.4 mph 19.6 mph 0.00 in Snow Light Snow
9:15 PM 34.0 °F 28.8 °F 30.0 °F 85% 29.81 in 1.8 mi SSW 5.8 mph - 0.01 in Snow Light Snow
9:42 PM 34.0 °F 26.6 °F 30.0 °F 85% 29.81 in 3.0 mi SW 9.2 mph 17.3 mph 0.01 in Snow Light Snow
9:53 PM 34.0 °F 28.0 °F 30.0 °F 85% 29.86 in 4.0 mi SSW 6.9 mph - 0.01 in Snow Light Snow
10:03 PM 34.0 °F 27.2 °F 30.0 °F 85% 29.79 in 2.5 mi SSW 8.1 mph 16.1 mph 0.01 in Snow Light Snow
10:12 PM 34.0 °F 27.2 °F 30.0 °F 85% 29.79 in 4.0 mi SSW 8.1 mph 18.4 mph 0.01 in   Overcast
10:53 PM 34.0 °F 27.2 °F 30.0 °F 85% 29.83 in 6.0 mi SSW 8.1 mph - 0.01 in   Overcast
11:40 PM 35.1 °F 27.9 °F 30.0 °F 82% 29.79 in 7.0 mi SW 9.2 mph 16.1 mph 0.00 in   Overcast
11:53 PM 35.1 °F 27.4 °F 30.0 °F 82% 29.84 in 7.0 mi SW 10.4 mph 17.3 mph 0.00 in   Overcast